EW5474 Weather Reports


Display with metric or nautical units.
time (UTC)temp
F
wind
direction
speed
MPH
gust
MPH
rain 1hr
in
rain 24hr
in
rain mn
in
humidity
%
barometer
mb
20260902164258 89 34 3.0 11.0 0.00 0.00 0.00 74 1016.9
20260902163756 89 95 4.0 10.0 0.00 0.00 0.00 75 1016.9
20260902163254 88 69 4.0 11.0 0.00 0.00 0.00 77 1016.9
20260902162748 88 11 4.0 11.0 0.00 0.00 0.00 76 1017.0
20260902162243 87 53 4.0 10.0 0.00 0.00 0.00 77 1017.1
20260902161736 88 288 3.0 9.0 0.00 0.00 0.00 76 1017.1
20260902161230 89 235 4.0 11.0 0.00 0.00 0.00 73 1017.2
20260902160724 89 22 3.0 11.0 0.00 0.00 0.00 74 1017.2
20260902160231 90 333 2.0 7.0 0.00 0.00 0.00 74 1017.2
20260902155712 89 28 3.0 11.0 0.00 0.00 0.00 74 1017.2
20260902155206 89 62 5.0 11.0 0.00 0.00 0.00 74 1017.2
20260902154931 89 348 5.0 11.0 0.00 0.00 0.00 73 1017.3
20260902154154 89 0 5.0 11.0 0.00 0.00 0.00 72 1017.3
20260902153648 89 5 5.0 12.0 0.00 0.00 0.00 71 1017.3
20260902153142 90 42 5.0 12.0 0.00 0.00 0.00 69 1017.3
20260902152638 91 38 3.0 10.0 0.00 0.00 0.00 69 1017.2
20260902152631 91 30 2.0 5.0 0.00 0.00 0.00 68 1017.0
20260902151624 91 338 1.0 5.0 0.00 0.00 0.00 66 1016.9
20260902151119 91 20 1.0 5.0 0.00 0.00 0.00 67 1016.8
20260902150619 90 345 2.0 3.0 0.00 0.00 0.00 71 1016.8
20260902150119 91 343 1.0 5.0 0.00 0.00 0.00 69 1016.8
20260902145848 90 303 2.0 5.0 0.00 0.00 0.00 69 1016.8
20260902145118 90 43 2.0 7.0 0.00 0.00 0.00 68 1016.7
20260902144847 90 332 2.0 7.0 0.00 0.00 0.00 69 1016.7
20260902144110 90 293 1.0 5.0 0.00 0.00 0.00 68 1016.7
20260902143604 89 191 1.0 4.0 0.00 0.00 0.00 69 1016.7
20260902143102 89 15 2.0 6.0 0.00 0.00 0.00 69 1016.6
20260902143055 89 0 1.0 6.0 0.00 0.00 0.00 72 1016.6
20260902142046 89 5 1.0 4.0 0.00 0.00 0.00 72 1016.6
20260902141540 88 196 1.0 4.0 0.00 0.00 0.00 73 1016.5
20260902141034 87 17 1.0 3.0 0.00 0.00 0.00 72 1016.4
20260902140528 87 309 0.0 3.0 0.00 0.00 0.00 75 1016.4
20260902140024 87 181 0.0 0.0 0.00 0.00 0.00 76 1016.4
20260902135516 86 97 1.0 4.0 0.00 0.00 0.00 76 1016.4
20260902135010 86 44 2.0 6.0 0.00 0.00 0.00 75 1016.4
20260902134517 85 299 1.0 6.0 0.00 0.00 0.00 77 1016.4
20260902134230 85 78 1.0 5.0 0.00 0.00 0.00 78 1016.4
20260902133452 84 0 1.0 5.0 0.00 0.00 0.00 79 1016.4
20260902132946 83 355 1.0 5.0 0.00 0.00 0.00 81 1016.4
20260902132440 82 265 1.0 4.0 0.00 0.00 0.00 82 1016.4
20260902131934 81 344 1.0 4.0 0.00 0.00 0.00 82 1016.4
20260902131427 81 5 1.0 3.0 0.00 0.00 0.00 83 1016.5
20260902130922 81 5 0.0 3.0 0.00 0.00 0.00 83 1016.6
20260902130415 80 329 1.0 2.0 0.00 0.00 0.00 84 1016.6
20260902125910 80 347 1.0 4.0 0.00 0.00 0.00 84 1016.6
20260902125404 80 163 1.0 4.0 0.00 0.00 0.00 85 1016.5
20260902124858 80 28 1.0 4.0 0.00 0.00 0.00 85 1016.5
20260902124355 79 346 1.0 4.0 0.00 0.00 0.00 85 1016.4
20260902124348 79 319 1.0 3.0 0.00 0.00 0.00 85 1016.4
20260902123339 79 342 0.0 2.0 0.00 0.00 0.00 86 1016.3
20260902122834 79 172 0.0 0.0 0.00 0.00 0.00 86 1016.3
20260902122328 78 209 0.0 0.0 0.00 0.00 0.00 86 1016.4
20260902122053 78 239 0.0 0.0 0.00 0.00 0.00 86 1016.5
20260902121316 78 267 0.0 0.0 0.00 0.00 0.00 86 1016.4
20260902120810 78 209 0.0 0.0 0.00 0.00 0.00 86 1016.4
20260902120305 78 151 0.0 0.0 0.00 0.00 0.00 86 1016.4
20260902115758 78 174 0.0 0.0 0.00 0.00 0.00 86 1016.2
20260902115251 77 20 0.0 0.0 0.00 0.00 0.00 86 1016.3
20260902114746 77 20 0.0 0.0 0.00 0.00 0.00 86 1016.2
20260902114240 77 20 0.0 0.0 0.00 0.00 0.00 86 1016.1
20260902114005 77 20 0.0 0.0 0.00 0.00 0.00 85 1016.0
20260902113228 77 20 0.0 0.0 0.00 0.00 0.00 85 1016.0
20260902112722 77 20 0.0 0.0 0.00 0.00 0.00 85 1016.0
20260902112216 76 20 0.0 0.0 0.00 0.00 0.00 85 1016.0
20260902111710 76 20 0.0 0.0 0.00 0.00 0.00 85 1016.0
20260902111204 76 20 0.0 0.0 0.00 0.00 0.00 85 1016.1
20260902110928 76 177 0.0 0.0 0.00 0.00 0.00 85 1016.0
20260902110153 76 189 0.0 0.0 0.00 0.00 0.00 85 1015.9
20260902105646 77 189 0.0 0.0 0.00 0.00 0.00 85 1016.0
20260902105140 77 189 0.0 0.0 0.00 0.00 0.00 85 1016.0
20260902104634 76 190 0.0 0.0 0.00 0.00 0.00 85 1016.1
20260902104128 77 93 0.0 0.0 0.00 0.00 0.00 85 1016.2
20260902103853 76 93 0.0 0.0 0.00 0.00 0.00 85 1016.4
20260902103116 77 93 0.0 0.0 0.00 0.00 0.00 85 1016.4
20260902102610 76 260 0.0 2.0 0.00 0.00 0.00 85 1016.3
20260902102104 76 260 1.0 7.0 0.00 0.00 0.00 85 1016.2
20260902101558 76 30 3.0 8.0 0.00 0.00 0.00 85 1016.5
20260902101052 76 30 2.0 8.0 0.00 0.00 0.00 84 1016.6
20260902100547 76 30 0.0 4.0 0.00 0.00 0.00 83 1016.2
20260902100541 76 192 0.0 0.0 0.00 0.00 0.00 83 1015.9
20260902095534 76 192 0.0 0.0 0.00 0.00 0.00 83 1015.8
20260902095028 76 192 0.0 0.0 0.00 0.00 0.00 83 1015.7
20260902094754 76 192 0.0 0.0 0.00 0.00 0.00 83 1015.7
20260902094246 77 192 0.0 0.0 0.00 0.00 0.00 83 1015.7
20260902093523 77 192 0.0 0.0 0.00 0.00 0.00 82 1015.6
20260902093004 77 192 0.0 0.0 0.00 0.00 0.00 82 1015.7
20260902092458 77 192 0.0 0.0 0.00 0.00 0.00 82 1015.7
20260902091952 77 192 0.0 0.0 0.00 0.00 0.00 82 1015.7
20260902091446 77 192 0.0 0.0 0.00 0.00 0.00 82 1015.7
20260902090940 77 192 0.0 0.0 0.00 0.00 0.00 82 1015.6
20260902090704 77 192 0.0 0.0 0.00 0.00 0.00 82 1015.6
20260902090031 77 192 0.0 0.0 0.00 0.00 0.00 82 1015.6
20260902084916 77 210 0.0 0.0 0.00 0.00 0.00 81 1015.5
20260902084512 77 210 0.0 0.0 0.00 0.00 0.00 81 1015.4
20260902083358 78 210 0.0 0.0 0.00 0.00 0.00 81 1015.5
20260902082852 78 210 0.0 0.0 0.00 0.00 0.00 81 1015.6
20260902082345 78 210 0.0 0.0 0.00 0.00 0.00 81 1015.7
20260902081840 78 210 0.0 0.0 0.00 0.00 0.00 81 1015.7
20260902081605 78 210 0.0 0.0 0.00 0.00 0.00 81 1015.7
20260902080828 78 210 0.0 0.0 0.00 0.00 0.00 81 1015.6
20260902080322 78 210 0.0 0.0 0.00 0.00 0.00 81 1015.5
20260902075816 78 210 0.0 0.0 0.00 0.00 0.00 81 1015.6
20260902075309 78 210 0.0 0.0 0.00 0.00 0.00 81 1015.6
20260902074804 78 210 0.0 0.0 0.00 0.00 0.00 81 1015.6
20260902074258 78 210 0.0 0.0 0.00 0.00 0.00 81 1015.8
20260902073855 79 210 0.0 0.0 0.00 0.00 0.00 81 1015.8
20260902072740 79 210 0.0 0.0 0.00 0.00 0.00 81 1015.8
20260902072234 79 210 0.0 0.0 0.00 0.00 0.00 81 1015.8
20260902071728 79 210 0.0 0.0 0.00 0.00 0.00 81 1015.8
20260902071222 79 210 0.0 0.0 0.00 0.00 0.00 81 1015.8
20260902070716 79 210 0.0 0.0 0.00 0.00 0.00 81 1015.8
20260902070210 79 210 0.0 0.0 0.00 0.00 0.00 81 1015.9
20260902065934 79 210 0.0 0.0 0.00 0.00 0.00 81 1015.9
20260902065158 79 210 0.0 0.0 0.00 0.00 0.00 81 1015.9
20260902064923 79 210 0.0 0.0 0.00 0.00 0.00 82 1015.9
20260902064146 79 210 0.0 0.0 0.00 0.00 0.00 82 1015.9
20260902063640 79 210 0.0 0.0 0.00 0.00 0.00 82 1015.9
20260902063134 79 210 0.0 0.0 0.00 0.00 0.00 82 1016.0
20260902062628 80 194 0.0 0.0 0.00 0.00 0.00 82 1016.0
20260902062123 80 194 0.0 0.0 0.00 0.00 0.00 82 1016.1
20260902061618 80 183 0.0 0.0 0.00 0.00 0.00 82 1016.1
20260902061612 80 168 0.0 0.0 0.00 0.00 0.00 82 1016.2
20260902060604 80 194 0.0 0.0 0.00 0.00 0.00 82 1016.1
20260902060105 80 186 0.0 0.0 0.00 0.00 0.00 82 1016.1
20260902055551 80 186 0.0 0.0 0.00 0.00 0.00 82 1016.1
20260902055046 80 186 0.0 0.0 0.00 0.00 0.00 82 1016.1
20260902054540 80 178 0.0 0.0 0.00 0.00 0.00 82 1016.1
20260902054034 80 178 0.0 0.0 0.00 0.00 0.00 82 1016.0
20260902053528 80 194 0.0 0.0 0.00 0.00 0.00 82 1016.1
20260902053022 80 194 0.0 0.0 0.00 0.00 0.00 82 1016.0
20260902052515 80 195 0.0 0.0 0.00 0.00 0.00 82 1016.1
20260902052010 80 191 0.0 0.0 0.00 0.00 0.00 82 1016.1
20260902051517 80 153 0.0 0.0 0.00 0.00 0.00 82 1016.1
20260902051002 80 192 0.0 0.0 0.00 0.00 0.00 82 1016.0
20260902050448 80 115 0.0 0.0 0.00 0.00 0.00 82 1016.1
20260902045942 80 202 0.0 0.0 0.00 0.00 0.00 82 1016.1
20260902045436 80 202 0.0 0.0 0.00 0.00 0.00 82 1016.2
20260902044930 81 202 0.0 0.0 0.00 0.00 0.00 82 1016.1
20260902044424 81 212 0.0 0.0 0.00 0.00 0.00 82 1016.1
20260902044150 81 212 0.0 0.0 0.00 0.00 0.00 82 1016.0
20260902043412 81 203 0.0 0.0 0.00 0.00 0.00 82 1015.9
20260902042906 81 203 0.0 0.0 0.00 0.00 0.00 82 1015.8
20260902042403 81 234 0.0 0.0 0.00 0.00 0.00 82 1015.8
20260902042357 81 202 0.0 0.0 0.00 0.00 0.00 82 1015.8
20260902041618 81 202 0.0 0.0 0.00 0.00 0.00 82 1015.8
20260902040842 81 207 0.0 0.0 0.00 0.00 0.00 82 1015.7
20260902040336 81 207 0.0 0.0 0.00 0.00 0.00 81 1015.7
20260902035324 81 191 0.0 0.0 0.00 0.00 0.00 80 1015.7
20260902034817 81 191 0.0 0.0 0.00 0.00 0.00 80 1015.7
20260902034312 81 191 0.0 0.0 0.00 0.00 0.00 81 1015.6
20260902034037 81 191 0.0 0.0 0.00 0.00 0.00 80 1015.6
20260902033300 81 191 0.0 0.0 0.00 0.00 0.00 80 1015.6
20260902032754 81 191 0.0 0.0 0.00 0.00 0.00 79 1015.6
20260902032300 82 191 0.0 0.0 0.00 0.00 0.00 79 1015.5
20260902031743 82 191 0.0 0.0 0.00 0.00 0.00 79 1015.4
20260902031236 82 191 0.0 0.0 0.00 0.00 0.00 79 1015.5
20260902030730 82 191 0.0 0.0 0.00 0.00 0.00 79 1015.6
20260902030224 82 191 0.0 0.0 0.00 0.00 0.00 79 1015.7
20260902025718 82 191 0.0 0.0 0.00 0.00 0.00 79 1015.6
20260902025211 82 191 0.0 0.0 0.00 0.00 0.00 79 1015.7
20260902024706 82 191 0.0 0.0 0.00 0.00 0.00 79 1015.7
20260902024303 82 197 0.0 0.0 0.00 0.00 0.00 79 1015.7
20260902023419 82 194 0.0 0.0 0.00 0.00 0.00 78 1015.6
20260902022655 83 185 0.0 0.0 0.00 0.00 0.00 78 1015.5
20260902022136 83 185 0.0 0.0 0.00 0.00 0.00 78 1015.5
20260902021629 83 185 0.0 0.0 0.00 0.00 0.00 78 1015.4
20260902021355 83 185 0.0 0.0 0.00 0.00 0.00 78 1015.3
20260902020849 83 185 0.0 0.0 0.00 0.00 0.00 78 1015.3
20260902020356 83 180 0.0 0.0 0.00 0.00 0.00 77 1015.3
20260902015606 83 196 0.0 0.0 0.00 0.00 0.00 77 1015.4
20260902015100 83 196 0.0 0.0 0.00 0.00 0.00 77 1015.4
20260902014554 84 194 0.0 2.0 0.00 0.00 0.00 77 1015.3
20260902014048 84 194 0.0 2.0 0.00 0.00 0.00 77 1015.1
20260902013542 84 199 0.0 0.0 0.00 0.00 0.00 77 1015.1
20260902013036 84 187 0.0 0.0 0.00 0.00 0.00 77 1014.9
20260902012801 84 185 0.0 0.0 0.00 0.00 0.00 77 1014.7
20260902012255 84 170 0.0 0.0 0.00 0.00 0.00 76 1014.8
20260902011518 85 190 0.0 0.0 0.00 0.00 0.00 76 1014.8
20260902011012 85 190 0.0 0.0 0.00 0.00 0.00 76 1014.7
20260902010506 85 180 0.0 0.0 0.00 0.00 0.00 76 1014.8
20260902010002 85 180 0.0 0.0 0.00 0.00 0.00 75 1014.7
20260902005956 85 186 0.0 0.0 0.00 0.00 0.00 75 1014.6
20260902004948 85 186 0.0 0.0 0.00 0.00 0.00 75 1014.6
20260902004442 85 186 0.0 0.0 0.00 0.00 0.00 75 1014.5
20260902003936 85 186 0.0 0.0 0.00 0.00 0.00 75 1014.4
20260902003430 86 186 0.0 0.0 0.00 0.00 0.00 75 1014.4
20260902003155 86 192 0.0 3.0 0.00 0.00 0.00 75 1014.4
20260902002417 86 206 0.0 5.0 0.00 0.00 0.00 75 1014.5
20260902001912 86 193 0.0 5.0 0.00 0.00 0.00 75 1014.4
20260902001419 86 184 1.0 4.0 0.00 0.00 0.00 74 1014.4
20260902000903 86 223 0.0 4.0 0.00 0.00 0.00 74 1014.4
20260902000856 87 198 0.0 0.0 0.00 0.00 0.00 74 1014.4
20260901235848 87 198 0.0 1.0 0.00 0.00 0.00 74 1014.4
20260901235342 87 198 0.0 1.0 0.00 0.00 0.00 74 1014.4
20260901234842 87 198 0.0 2.0 0.00 0.00 0.00 74 1014.4
20260901234338 87 198 0.0 2.0 0.00 0.00 0.00 74 1014.4
20260901233838 87 157 0.0 2.0 0.00 0.00 0.00 73 1014.5
20260901233335 87 157 0.0 2.0 0.00 0.00 0.00 73 1014.5
20260901232834 87 167 0.0 0.0 0.00 0.00 0.00 73 1014.6
20260901232339 87 188 1.0 4.0 0.00 0.00 0.00 73 1014.7
20260901232332 87 183 0.0 4.0 0.00 0.00 0.00 73 1014.6
20260901231329 87 175 1.0 4.0 0.00 0.00 0.00 72 1014.8
20260901230830 87 182 1.0 4.0 0.00 0.00 0.00 72 1014.8
20260901230557 87 185 1.0 4.0 0.00 0.00 0.00 72 1014.8
20260901225827 87 187 1.0 4.0 0.00 0.00 0.00 72 1014.8
20260901225559 87 188 1.0 4.0 0.00 0.00 0.00 72 1014.9
20260901224827 88 65 1.0 5.0 0.00 0.00 0.00 71 1014.8
20260901224328 88 173 2.0 5.0 0.00 0.00 0.00 70 1014.9
20260901223827 88 164 2.0 5.0 0.00 0.00 0.00 70 1015.0
20260901223327 88 165 2.0 4.0 0.00 0.00 0.00 70 1015.1
20260901222827 88 133 2.0 4.0 0.00 0.01 0.00 70 1015.1
20260901222328 88 69 2.0 4.0 0.00 0.01 0.00 69 1015.1
20260901222059 88 198 2.0 6.0 0.00 0.01 0.00 70 1015.2
20260901221330 89 152 1.0 6.0 0.00 0.01 0.00 68 1015.1
20260901221322 89 180 2.0 6.0 0.00 0.01 0.00 68 1015.1
20260901220541 89 172 1.0 4.0 0.00 0.01 0.00 68 1015.2
20260901215804 89 182 1.0 4.0 0.00 0.02 0.00 68 1015.2
20260901215258 90 24 1.0 7.0 0.00 0.02 0.00 68 1015.3
20260901214752 89 146 2.0 7.0 0.00 0.02 0.00 68 1015.2
20260901214245 90 38 1.0 8.0 0.00 0.07 0.00 67 1015.2
20260901213740 90 92 1.0 6.0 0.00 0.14 0.00 66 1015.2
20260901213234 90 15 1.0 8.0 0.00 0.21 0.00 66 1015.1
20260901212959 91 175 2.0 8.0 0.00 0.32 0.00 66 1015.0
20260901212222 91 58 2.0 9.0 0.00 0.34 0.00 67 1015.0
20260901211716 91 338 2.0 9.0 0.00 0.35 0.00 66 1015.1
20260901211209 90 325 1.0 5.0 0.00 0.35 0.00 66 1015.1
20260901210704 91 25 1.0 5.0 0.00 0.35 0.00 68 1015.1
20260901210158 91 207 1.0 5.0 0.00 0.35 0.00 66 1015.1
20260901205652 91 22 2.0 5.0 0.00 0.35 0.00 67 1015.1
20260901205146 91 84 2.0 6.0 0.00 0.35 0.00 65 1015.1
20260901204640 91 342 1.0 6.0 0.00 0.35 0.00 65 1015.0
20260901204405 91 175 0.0 5.0 0.00 0.35 0.00 65 1015.0
20260901203628 91 115 1.0 6.0 0.00 0.35 0.00 65 1015.0
20260901203122 91 192 1.0 6.0 0.00 0.35 0.00 65 1014.9
20260901202616 92 120 1.0 6.0 0.00 0.35 0.00 66 1014.8
20260901202110 91 190 2.0 6.0 0.00 0.35 0.00 66 1014.9
20260901201604 91 161 3.0 6.0 0.00 0.35 0.00 67 1015.0
20260901201058 91 148 2.0 7.0 0.00 0.35 0.00 64 1015.1
20260901200558 91 173 2.0 7.0 0.00 0.35 0.00 62 1015.2
20260901200111 91 188 2.0 7.0 0.00 0.35 0.00 64 1015.2
20260901195828 92 70 1.0 4.0 0.00 0.35 0.00 64 1015.2
20260901195058 92 355 1.0 4.0 0.00 0.35 0.00 62 1015.2
20260901194556 91 321 1.0 3.0 0.00 0.35 0.00 54 1015.2
20260901194056 91 313 1.0 5.0 0.00 0.35 0.00 55 1015.2
20260901193554 92 0 2.0 5.0 0.00 0.35 0.00 54 1015.3
20260901193053 92 327 2.0 4.0 0.00 0.35 0.00 53 1015.3
20260901192554 93 342 1.0 4.0 0.00 0.35 0.00 55 1015.4
20260901192052 92 355 0.0 3.0 0.00 0.35 0.00 55 1015.3
20260901191553 93 204 1.0 3.0 0.00 0.35 0.00 58 1015.4
20260901191053 93 32 1.0 3.0 0.00 0.35 0.00 61 1015.4
20260901190606 93 330 0.0 3.0 0.00 0.35 0.00 55 1015.5
20260901190106 93 169 0.0 2.0 0.00 0.35 0.00 59 1015.5
20260901185554 92 142 0.0 3.0 0.00 0.35 0.00 59 1015.6
20260901185051 93 349 1.0 3.0 0.00 0.35 0.00 54 1015.7
20260901184549 92 325 1.0 4.0 0.00 0.35 0.00 58 1015.7
20260901184050 91 80 0.0 4.0 0.00 0.35 0.00 56 1015.8
20260901183544 92 154 1.0 4.0 0.00 0.35 0.00 57 1015.8
20260901183316 92 336 1.0 4.0 0.00 0.35 0.00 56 1015.8
20260901182544 92 5 2.0 4.0 0.00 0.35 0.00 58 1015.8
20260901182044 92 30 1.0 4.0 0.00 0.35 0.00 54 1015.9
20260901181544 93 26 1.0 4.0 0.00 0.35 0.00 57 1015.8
20260901181051 92 79 2.0 5.0 0.00 0.35 0.00 55 1015.8
20260901181044 92 205 2.0 5.0 0.00 0.35 0.00 57 1015.8
20260901180044 92 46 2.0 5.0 0.00 0.35 0.00 56 1015.8
20260901175543 92 355 2.0 5.0 0.00 0.35 0.00 55 1015.9
20260901175055 92 327 1.0 4.0 0.00 0.35 0.00 56 1015.9
20260901174544 92 248 1.0 4.0 0.00 0.35 0.00 55 1015.9
20260901174315 92 341 1.0 4.0 0.00 0.35 0.00 56 1015.9
20260901173544 92 178 0.0 4.0 0.00 0.35 0.00 58 1015.9
20260901173043 92 185 1.0 4.0 0.00 0.35 0.00 57 1016.0
20260901172549 92 322 1.0 5.0 0.00 0.35 0.00 66 1016.0
20260901172543 93 183 1.0 4.0 0.00 0.35 0.00 61 1015.9
20260901171544 92 316 2.0 5.0 0.00 0.35 0.00 60 1016.0
20260901171038 91 32 1.0 5.0 0.00 0.35 0.00 62 1016.1
20260901170532 91 222 1.0 5.0 0.00 0.35 0.00 59 1016.0
20260901170026 92 119 1.0 5.0 0.00 0.35 0.00 61 1016.1
20260901165520 92 59 1.0 4.0 0.00 0.35 0.00 60 1016.2
20260901165014 91 336 1.0 4.0 0.00 0.35 0.00 65 1016.2
20260901164508 91 312 2.0 6.0 0.00 0.35 0.00 64 1016.3